www.pogodaiklimat.ru

Погода и климат >> Архив погоды >> Россия >> Ненецкий АО >> Амдерма


ПОГОДА в Амдерме

  • Прогноз погоды в Амдерме
  • Монитор погоды в Амдерме
  • Климат города

АРХИВ ПОГОДЫ в Амдерме

Время (UTC), дата Ветер
(напр.,м/с)
 
Видим.   Явления Облачность Т
(С)
Тd
(С)
f
(%)
Тe
(С)
Тes
(С)
Комфортность P
(гПа)
Po
(гПа)
Тmin
(С)
Tmax
(С)
R
(мм)
R24
(мм)
S
(см)
03 15.10 ЮВ 3 10 км 9/9 300 м
[Sc]
-2.3 -3.6 91 -8 -8 1020.2 1013.7 -2.5 0.0 <0.5
06 15.10 ЮЗ 2 10 км {ливн. осадки} 9/9 300 м
[Sc]
-2.1 -2.8 95 -6 -6 1020.3 1013.8 -2.5
09 15.10 СВ 4 10 км {ливн. осадки} 10/10 600 м
[Sc]
-0.7 -3.7 80 -6 -6 1020.5 1014.1
12 15.10 СВ 4 10 км {ливн. осадки} 8/6 600 м
[Sc Ci fib]
-1.2 -4.4 79 -7 -7 1020.8 1014.3
15 15.10 ЮВ 2 10 км {ливн. осадки} 9/9 300 м
[Sc]
-3.3 -3.7 97 -8 -8 1021.2 1014.7 -0.5 0.5
18 15.10 В 6 10 км {ливн. осадки} 9/9 600 м
[Sc]
-1.6 -4.3 82 -9 -9 1021.5 1015.0
21 15.10 ЮВ 3 10 км слабый ливневой снег 10/10 600 м
[Cb cap]
-2.7 -5.0 84 -8 -8 1022.0 1015.5
00 16.10 Ю 2 10 км {ливн. осадки} 10/10 600 м
[Sc]
-3.6 -5.7 85 -8 -8 1022.0 1015.5
03 16.10 Ю 2 10 км в посл. час ливневой снег 9/8 300 м
[Sc Ac trans]
-4.7 -5.8 92 -9 -9 1022.2 1015.6 -4.7 0.5 1
06 16.10 Ю 2 10 км в посл. час ливневой снег 9/8 600 м
[Cb cap Ac trans]
-3.2 -4.9 88 -7 -7 1022.0 1015.5 -4.9
09 16.10 Ю 1 10 км в посл. час крупа {ливн. осадки} 9/8 600 м
[Cb cap Ac trans]
-1.9 -4.8 81 -4 -4 1021.7 1015.2
12 16.10 ЮВ 4 10 км {ливн. осадки} 9/4 600 м
[Sc Ac trans]
-3.5 -6.8 78 -10 -10 1021.0 1014.5
15 16.10 ЮВ 3 10 км 9/4 600 м
[Sc Ac trans]
-4.9 -7.0 85 -10 -10 1020.2 1013.6 -1.9 0.0
18 16.10 ЮВ 7-10
{10}
10 км 10/0
[Ac und]
-5.2 -7.6 83 -14 -14 1018.3 1011.8
21 16.10 ЮВ 4
{11}
10 км 10/0
[Ac und]
-4.8 -7.4 82 -11 -11 1016.5 1010.0
00 17.10 В 10-14
{14}
10 км 10/0
[Ac und]
-4.5 -7.8 78 -14 -14 1013.3 1006.8
03 17.10 В 11-15
{16}
10 км 10/0
[Ac und]
-4.4 -7.2 81 -14 -14 1011.2 1004.7 -5.3 1
06 17.10 В 9-14
{16}
10 км 10/5 600 м
[Sc Ac und]
-4.4 -6.2 87 -14 -14 1009.3 1002.8
09 17.10 В 10-15
{15}
10 км 10/5 600 м
[Sc Ac und]
-3.1 -5.8 82 -12 -12 1007.6 1001.2
12 17.10 ЮВ 8-10
{15}
10 км 9/5 600 м
[Sc Ac trans]
-3.4 -5.3 87 -12 -12 1006.4 1000.0
15 17.10 В 6
{12}
10 км 10/10 600 м
[Sc]
-2.9 -4.1 91 -10 -10 1004.9 998.5 -2.9
18 17.10 В 6
{10}
10 км 10/10 600 м
[Sc]
-2.1 -3.3 91 -9 -9 1003.2 996.8
21 17.10 В 12-16
{16}
10 км слабый ливневой снег 10/10 600 м
[Cb cap]
-0.4 -1.0 96 -10 -10 1000.8 994.5
00 18.10 В 10-15
{16}
10 км слабый ливневой снег 10/10 600 м
[Cb cap]
-0.7 -1.0 98 -9 -9 999.3 993.0
03 18.10 В 11-15
{17}
4000 м слабый ливневой снег 10/10 600 м
[Cb cap]
-0.2 -0.4 99 -9 -9 997.0 990.7 -3.0 0.6 1
06 18.10 В 12-17
{17}
2000 м слабый ливневой снег 10/10 300 м
[Cb cap]
+0.1 -0.2 98 -9 -9 994.6 988.3
09 18.10 В 12-15
{17}
1000 м ливневой снег 10/10 300 м
[Cb cap]
0.0 -0.1 99 -9 -9 991.9 985.6
12 18.10 В 5
{15}
4000 м слабый ливневой дождь со снегом 10/10 300 м
[Cb cap]
+0.3 +0.2 99 -6 -6 989.3 983.0
15 18.10 Ю 4 4000 м слабый ливневой снег 10/10 300 м
[Cb cap]
+0.1 0.0 99 -6 -6 987.6 981.4 +0.5 10
18 18.10 Ю 5 4000 м дымка {ливн. осадки} 10/10 300 м
[St]
+0.6 +0.5 99 -6 -6 986.7 980.5
21 18.10 Ю 6 4000 м дымка {ливн. осадки, туман} 9/9 300 м
[Sc]
+0.5 +0.2 98 -6 -6 985.7 979.5
00 19.10 Ю 5 4000 м дымка {ливн. осадки, туман} 10/10 300 м
[Sc]
+0.5 +0.1 97 -6 -6 985.4 979.2
03 19.10 Ю 5 10 км {ливн. осадки} 10/10 300 м
[Sc]
+0.2 -0.1 98 -6 -6 985.4 979.2 +0.1 0.9 3
06 19.10 ЮЗ 6
{11}
4000 м дымка {ливн. осадки, морось} 10/10 300 м
[St]
+0.5 +0.2 98 -6 -6 985.8 979.6
09 19.10 ЮЗ 7-10
{12}
4000 м дымка {морось} 10/10 300 м
[St]
+0.6 +0.2 97 -7 -7 987.0 980.8
12 19.10 Ю 6
{11}
10 км {ливн. осадки, морось} 10/10 300 м
[St]
+0.4 -0.2 96 -6 -6 988.4 982.2
15 19.10 ЮЗ 2 4000 м слабый ливневой снег 10/10 300 м
[Cb cap]
-0.3 -0.5 99 -4 -4 989.8 983.5 +0.7 0.5
18 19.10 З 5 10 км {ливн. осадки} 10/10 300 м
[Sc]
-1.3 -2.1 94 -8 -8 991.3 985.0
21 19.10 ЮЗ 3 10 км ясно -4.6 -5.2 96 -10 -10 993.0 986.6
00 20.10 Ю 3 10 км 6/6 600 м
[Sc]
-6.0 -6.5 96 -12 -12 993.6 987.2
03 20.10 Ю 5 10 км 5/5 600 м
[Sc]
-5.8 -7.2 90 -13 -13 994.4 987.9 -7.0 0.0 3
06 20.10 Ю 5 10 км 1/1 600 м
[Sc diur, vesp]
-4.1 -4.9 94 -11 -11 994.9 988.5
09 20.10 Ю 4 10 км 1/1 600 м
[Sc diur, vesp]
-2.0 -3.2 91 -8 -8 996.1 989.7
12 20.10 Ю 6 500 м туман 10/10 600 м
[Sc]
-2.8 -3.0 99 -10 -10 997.0 990.6
15 20.10 Ю 6 10 км {туман} [диам. гололёда 0 мм] ясно -3.2 -3.7 96 -11 -11 997.5 991.1 -2.0
18 20.10 Ю 7 4000 м дымка {туман} 10/10 300 м
[St]
-2.5 -2.8 98 -10 -10 997.5 991.2
21 20.10 Ю 5 4000 м дымка 10/10 300 м
[St]
-2.6 -2.8 99 -10 -10 997.6 991.3
00 21.10 Ю 4 н/о н/о -3.6 -3.8 99 -10 -10 997.5 991.1
03 21.10 Ю 3 10 км 10/10 300 м
[Sc]
-5.7 -6.3 96 -11 -11 997.9 991.4 -6.2 3
06 21.10 ЮЗ 1 10 км 9/8 600 м
[Sc Ac trans Ci sp]
-4.7 -5.1 97 -7 -7 997.9 991.5
09 21.10 З 2 2000 м слабый ливневой снег 10/10 300 м
[Cb cap]
-3.0 -3.2 99 -7 -7 998.1 991.7
12 21.10 СВ 3 2000 м слабый ливневой снег 10/10 300 м
[Cb cap]
0.0 -0.3 98 -5 -5 997.6 991.3
15 21.10 В 5 4000 м слабый ливневой снег 10/10 300 м
[Cb cap]
-0.1 -0.2 99 -6 -6 997.9 991.6 0.0 3
18 21.10 СВ 5 4000 м слабый ливневой снег 10/10 300 м
[Cb cap]
+0.4 +0.3 99 -6 -6 998.2 992.0
21 21.10 В 2 10 км слабый ливневой снег 10/10 600 м
[Cb cap]
+0.2 +0.1 99 -4 -4 999.3 993.0

 

Местоположение метеостанции Амдерма (Ненецкий АО, Россия): широта 69.77 долгота 61.68 высота над уровнем моря 48 м.

В архиве по умолчанию представлена погода в Амдерме за последнюю неделю. Архивные данные за месяц целиком и за предыдущие месяцы, начиная с января 2011 года, Вы можете получить, выбрав интересующий диапазон дат из раскрывающегося списка и нажав кнопку "Ввод!".

Внимание! Время в таблицах - всемирное. Для получения местного времени необходимо прибавить поправку, которая в Амдерме равна 3 ч.

Смотрите также архив погоды в соседних городах и на ближайших метеорологических станциях:

Погода на Мысе Белый Нос (Ненецкий АО, Россия) (60 км)
Погода в Имени Федорова (Ненецкий АО, Россия) (124 км)
Погода в Усть-Каре (Ненецкий АО, Россия) (139 км)
Погода в Варандее (Ненецкий АО, Россия) (179 км)
Погода в Inari Angeli (Финляндия) (186 км)
Погода в Марресаля (Ямало-Ненецкий АО, Россия) (197 км)
Погода в Воркуте (Коми, Россия) (271 км)
Погода на Мысе Константиновском (Ненецкий АО, Россия) (279 км)
Погода в Хорей-Вере (Ненецкий АО, Россия) (300 км)
Погода в Елецкой (Коми, Россия) (318 км)

Пояснения к столбцам:

Ветер - указаны скорость ветра в м/с - средняя за 10 мин, порывы в срок и между сроками (в фигурных скобках) и направление, откуда дует ветер: С - северный, СВ - северо-восточный, В - восточный, ЮВ - юго-восточный, Ю - южный, ЮЗ - юго-западный, З - западный, СЗ - северо-западный.
Видимость - горизонтальная дальность видимости в метрах или километрах. При видимости от 1 до 10 км при отсутствии осадков обычно наблюдается дымка, при ухудшении видимости до 1 км и менее - туман. В сухую погоду видимость может ухудшаться дымом, пылью или мглою.
Явления - указаны атмосферные явления, наблюдавшиеся в срок или в последний час перед сроком; фигурными скобками обозначены явления, наблюдавшиеся между сроками (за 1-3 часа до срока); квадратными скобками обозначены град или гололедные отложения с указанием их диаметра в мм.
Облачность - указаны через наклонную черту общая и нижняя облачность в баллах и высота нижней границы облаков в метрах; квадратными скобками обозначены формы облаков: Ci - перистые, Cs - перисто-слоистые, Cc - перисто-кучевые, Ac - высококучевые, As - высокослоистые, Sc - слоисто-кучевые, Ns - слоисто-дождевые, Cu - кучевые, Cb - кучево-дождевые. Подробнее классификацию облаков см. в Атласе облаков (PDF).
T - Температура воздуха - температура, измеренная на высоте 2 м над землей.
Td - Температура точки росы - температура, при понижении до которой содержащийся в воздухе водяной пар достигнет насыщения.
f - Относительная влажность воздуха - влажноcть воздуха, измеренная на высоте 2 м над землей.
Te - Эффективная температура - температура, которую ощущает одетый по сезону человек в тени. Характеристика душности погоды. При расчете учитывается влияние влажности воздуха и скорости ветра на теплоощущения человека.
Tes - Эффективная температура на солнце - температура, которую ощущает человек, с поправкой на солнечный нагрев. Характеристика знойности погоды. Зависит от высоты солнца над горизонтом, облачности и скорости ветра. Ночью, в пасмурную погоду, а также при ветре 12 м/с и более поправка равна нулю.
P - Атмосферное давление - приведенное к уровню моря атмосферное давление.
Po - Атмосферное давление - измеренное на уровне метеостанции атмосферное давление.
Tmin - Минимальная температура - минимум температуры воздуха на высоте 2 м над землей.
Tmax - Максимальная температура - максимум температуры воздуха на высоте 2 м над землей.
R - Количество осадков - Количество выпавших осадков за период времени, мм. При наведении курсора мыши на число - период времени, за который выпало указанное количество осадков.
R24 - Количество осадков - Количество выпавших осадков за 24 часа, мм.
S - Снежный покров - Высота снежного покрова, см. При наведении курсора мыши на число - состояние снежного покрова и степень покрытия местности в баллах.